Honolulu, HI

6:23 PM HST on April 29, 2017 (GMT -1000)
Honolulu International

Weather History for PHNL - June, 2014

Change the Weather History Date:

Monday, June 16, 2014

  Actual Average Record
Temperature  
Mean Temperature 80 °F 80 °F  
Max Temperature 87 °F 87 °F 89 °F (1986)
Min Temperature 72 °F 74 °F 65 °F (1971)
Degree Days  
Heating Degree Days 0 0  
Month to date heating degree days 0 0  
Since 1 June heating degree days 0 0  
Since 1 July heating degree days 0 0  
Cooling Degree Days 15 15  
Month to date cooling degree days 252 237  
Year to date cooling degree days 1861 1739  
Since 1 June cooling degree days 252 237  
Growing Degree Days 30 (Base 50)    
Moisture  
Dew Point 63 °F    
Average Humidity 60    
Maximum Humidity 79    
Minimum Humidity 40    
Precipitation  
Precipitation 0.00 in 0.01 in 0.39 in (1971)
Month to date precipitation 0.04 0.15  
Year to date precipitation 10.01 7.72  
Snow  
Snow 0.00 in - - ()
Month to date snowfall 0.0  
Since 1 June snowfall 0.0  
Since 1 July snowfall 0.0  
Snow Depth 0.00 in    
Sea Level Pressure  
Sea Level Pressure 30.01 in    
Wind  
Wind Speed 10 mph (NE)    
Max Wind Speed 21 mph    
Max Gust Speed 29 mph    
Visibility 10 miles    
Events Rain    
T = Trace of Precipitation, MM = Missing Value Source: NWS Daily Summary

Daily Weather History Graph

Daily Weather History Graph

Search for Another Location

Airport or City:

Trip Planner

Search our weather history database for the weather conditions in past years. The results will help you decide how hot, cold, wet, or windy it might be!

Date:

Astronomy

Jun. 16, 2014 Rise Set
Actual Time 5:49 AM HST 7:15 PM HST
Civil Twilight 5:24 AM HST 7:40 PM HST
Nautical Twilight 4:55 AM HST 8:09 PM HST
Astronomical Twilight 4:24 AM HST 8:40 PM HST
Moon 10:44 PM HST (6/16) 9:41 AM HST (6/16)
Length of Visible Light 14h 15m
Length of Day
13h 25m
Waning Gibbous, 81% of the Moon is Illuminated
Jun 16
Waning Gibbous
Jun 19
Last Quarter
Jun 26
New
Jul 5
First Quarter
Jul 12
Full

Hourly Weather History & Observations

Time (HST) Temp. Heat Index Dew Point Humidity Pressure Visibility Wind Dir Wind Speed Gust Speed Precip Events Conditions
12:53 AM 75.0 °F - 66.0 °F 73% 30.04 in 10.0 mi ENE 11.5 mph - N/A   Scattered Clouds
1:53 AM 75.0 °F - 64.9 °F 71% 30.02 in 10.0 mi ENE 10.4 mph - N/A   Partly Cloudy
2:53 AM 73.9 °F - 64.0 °F 71% 30.01 in 10.0 mi NE 4.6 mph - N/A   Partly Cloudy
3:53 AM 73.0 °F - 64.0 °F 73% 30.01 in 10.0 mi Calm Calm - N/A   Partly Cloudy
4:53 AM 72.0 °F - 64.0 °F 76% 30.01 in 10.0 mi North 3.5 mph - N/A   Partly Cloudy
5:53 AM 73.0 °F - 63.0 °F 71% 30.01 in 10.0 mi North 4.6 mph - N/A   Partly Cloudy
6:53 AM 75.0 °F - 64.0 °F 69% 30.03 in 10.0 mi Calm Calm - N/A   Partly Cloudy
7:53 AM 79.0 °F - 64.0 °F 60% 30.04 in 10.0 mi ENE 9.2 mph 18.4 mph N/A   Scattered Clouds
8:53 AM 81.0 °F 82.5 °F 64.0 °F 56% 30.04 in 10.0 mi ENE 15.0 mph - N/A   Scattered Clouds
9:53 AM 82.9 °F 83.7 °F 62.1 °F 49% 30.03 in 10.0 mi ENE 10.4 mph 20.7 mph N/A   Scattered Clouds
10:53 AM 84.0 °F 84.4 °F 61.0 °F 46% 30.01 in 10.0 mi ENE 12.7 mph 20.7 mph N/A   Scattered Clouds
11:53 AM 84.9 °F 85.0 °F 61.0 °F 44% 30.01 in 10.0 mi NE 15.0 mph 25.3 mph N/A   Scattered Clouds
12:53 PM 84.9 °F 84.2 °F 57.9 °F 40% 29.99 in 10.0 mi ENE 12.7 mph 23.0 mph N/A   Scattered Clouds
1:53 PM 86.0 °F 85.4 °F 59.0 °F 40% 29.98 in 10.0 mi NE 15.0 mph 26.5 mph N/A   Scattered Clouds
2:53 PM 84.9 °F 85.0 °F 61.0 °F 44% 29.97 in 10.0 mi NE 18.4 mph 26.5 mph N/A   Mostly Cloudy
3:53 PM 84.9 °F 84.8 °F 60.1 °F 43% 29.96 in 10.0 mi ENE 15.0 mph 20.7 mph N/A   Mostly Cloudy
4:53 PM 84.0 °F 84.4 °F 61.0 °F 46% 29.96 in 10.0 mi ENE 16.1 mph 21.9 mph N/A   Mostly Cloudy
5:53 PM 80.1 °F 81.5 °F 63.0 °F 56% 29.97 in 10.0 mi NE 15.0 mph - 0.00 in Rain Rain
6:53 PM 78.1 °F - 64.0 °F 62% 29.99 in 10.0 mi ENE 10.4 mph - 0.00 in   Mostly Cloudy
7:53 PM 75.0 °F - 66.0 °F 73% 30.00 in 10.0 mi North 5.8 mph - 0.00 in   Mostly Cloudy
8:53 PM 77.0 °F - 64.0 °F 64% 30.02 in 10.0 mi NE 10.4 mph - N/A   Mostly Cloudy
9:53 PM 75.9 °F - 64.0 °F 67% 30.02 in 10.0 mi NE 10.4 mph - 0.00 in   Scattered Clouds
10:53 PM 75.0 °F - 66.0 °F 73% 30.03 in 10.0 mi NE 9.2 mph - 0.00 in Rain Light Rain
11:53 PM 75.0 °F - 66.9 °F 76% 30.03 in 10.0 mi East 9.2 mph - 0.00 in Rain Light Rain